STARLINK-33850

Last updated on Thu May 29 2025 00:02:04 GMT+0000 (Coordinated Universal Time)

1 63679U 25085R 25148.58701965 -.00003123 00000+0 -67492-4 0 9994 2 63679 43.0006 203.0670 0001428 270.8613 89.2080 15.40716717 5232
UTC large
Height (km)
Speed (km/s)
/
Latitude / Longitude
Inclination (degrees)
Orbital Period (minutes)
Azimuth
Elevation
Range (km)
Doppler Factor

Next 0 passes for location: London (51.5072 / 0.1276)

Sorry there are no passes over London.